TimeEDT,TemperatureF,Dew PointF,Humidity,Sea Level PressureIn,VisibilityMPH,Wind Direction,Wind SpeedMPH,Gust SpeedMPH,PrecipitationIn,Events,Conditions,WindDirDegrees,DateUTC
12:56 AM,54.0,30.9,41,29.84,10.0,WNW,12.7,-,N/A,,Mostly Cloudy,290,2012-04-24 04:56:00
1:56 AM,52.0,30.9,45,29.84,10.0,WNW,11.5,-,N/A,,Scattered Clouds,290,2012-04-24 05:56:00
2:56 AM,51.1,30.9,46,29.83,10.0,WNW,12.7,-,N/A,,Clear,300,2012-04-24 06:56:00
3:56 AM,48.9,32.0,52,29.84,10.0,WNW,10.4,-,N/A,,Clear,300,2012-04-24 07:56:00
4:56 AM,46.9,32.0,56,29.85,10.0,WNW,6.9,-,N/A,,Clear,290,2012-04-24 08:56:00
5:56 AM,46.0,30.9,56,29.86,10.0,WNW,9.2,-,N/A,,Clear,300,2012-04-24 09:56:00
6:56 AM,45.0,30.9,58,29.88,10.0,WNW,9.2,-,N/A,,Clear,300,2012-04-24 10:56:00
7:56 AM,48.0,32.0,54,29.90,10.0,WNW,11.5,-,N/A,,Clear,300,2012-04-24 11:56:00
8:56 AM,53.1,33.1,47,29.92,10.0,WNW,8.1,-,N/A,,Clear,300,2012-04-24 12:56:00
9:56 AM,57.0,33.1,40,29.93,10.0,WNW,11.5,-,N/A,,Clear,300,2012-04-24 13:56:00
10:56 AM,62.1,34.0,35,29.92,10.0,West,11.5,17.3,N/A,,Clear,280,2012-04-24 14:56:00
11:56 AM,66.0,33.1,29,29.91,10.0,West,15.0,24.2,N/A,,Partly Cloudy,280,2012-04-24 15:56:00
12:56 PM,66.9,30.0,25,29.89,10.0,WNW,16.1,26.5,N/A,,Scattered Clouds,290,2012-04-24 16:56:00
1:56 PM,69.1,32.0,25,29.87,10.0,NW,16.1,28.8,N/A,,Scattered Clouds,320,2012-04-24 17:56:00
2:56 PM,69.1,30.9,24,29.86,10.0,WNW,15.0,33.4,N/A,,Scattered Clouds,300,2012-04-24 18:56:00
3:56 PM,70.0,32.0,25,29.85,10.0,WNW,13.8,27.6,N/A,,Scattered Clouds,300,2012-04-24 19:56:00
4:56 PM,70.0,30.9,24,29.85,10.0,WNW,18.4,28.8,N/A,,Partly Cloudy,290,2012-04-24 20:56:00
5:56 PM,69.1,32.0,25,29.86,10.0,NW,20.7,27.6,N/A,,Partly Cloudy,310,2012-04-24 21:56:00
6:56 PM,66.9,33.1,28,29.86,10.0,WNW,11.5,-,N/A,,Clear,290,2012-04-24 22:56:00
7:56 PM,63.0,36.0,37,29.87,10.0,West,3.5,-,N/A,,Clear,270,2012-04-24 23:56:00
8:56 PM,57.9,37.9,47,29.90,10.0,West,5.8,-,N/A,,Clear,270,2012-04-25 00:56:00
9:56 PM,57.0,39.0,51,29.92,10.0,West,4.6,-,N/A,,Clear,260,2012-04-25 01:56:00
10:56 PM,54.0,39.9,59,29.93,10.0,WSW,4.6,-,N/A,,Clear,250,2012-04-25 02:56:00
11:56 PM,53.1,39.9,61,29.94,10.0,WSW,5.8,-,N/A,,Clear,250,2012-04-25 03:56:00